This demonstration page uses our WeatherBlox Daily Observations layout. Learn more.

Left ArrowRight Arrow

39.92423, -83.80882

Hourly Observations for January 18, 2018

Temp ( °F °C ) Dew Point ( °F °C ) Humidity (%) Winds ( mph kmh ) Pressure ( in mb ) Visibility ( mi km ) Precip ( " mm )
12:56 am 00:56 Clear 13 -10.6 8 -13.3 81 81 WSW 15 24 30.40 1029 10 16 N/A
1:56 am 01:56 Clear 12 -11.1 7 -13.9 80 80 WSW 15 24 30.37 1029 10 16 N/A
2:56 am 02:56 Clear 11 -11.7 6 -14.4 81 81 WSW 16 26 30.38 1029 10 16 N/A
3:56 am 03:56 Clear 11 -11.7 6 -14.4 81 81 WSW 13 20 30.37 1028 10 16 N/A
4:56 am 04:56 Clear 11 -11.7 6 -14.4 81 81 WSW 18 30 30.35 1028 10 16 N/A
5:56 am 05:56 Clear 11 -11.7 7 -13.9 84 84 WSW 16 26 30.35 1028 10 16 N/A
6:56 am 06:56 Clear 12 -11.1 7 -13.9 80 80 WSW 15 24 30.34 1027 10 16 N/A
7:56 am 07:56 Sunny 13 -10.6 7 -13.9 77 77 WSW 17 28 30.32 1027 10 16 N/A
8:56 am 08:56 Sunny 16 -8.9 8 -13.3 71 71 SW 20 31 30.32 1027 10 16 N/A
9:56 am 09:56 Sunny 19 -7.2 9 -12.8 65 65 SW 17 28 30.32 1027 10 16 N/A
10:56 am 10:56 Sunny 23 -5 10 -12.2 57 57 WSW 14 22 30.32 1027 10 16 N/A
11:56 am 11:56 Sunny 25 -3.9 12 -11.1 58 58 WSW 17 28 30.29 1026 10 16 N/A
12:56 pm 12:56 Sunny 28 -2.2 13 -10.6 53 53 SW 16 26 30.25 1024 10 16 N/A
1:56 pm 13:56 Sunny 30 -1.1 15 -9.4 54 54 SW 16 26 30.22 1023 10 16 N/A
2:56 pm 14:56 Sunny 32 undefined 16 -8.9 52 52 SW 14 22 30.21 1023 10 16 N/A
3:56 pm 15:56 Sunny 31 -0.6 16 -8.9 54 54 SW 10 17 30.23 1024 10 16 N/A
4:56 pm 16:56 Sunny 29 -1.7 16 -8.9 58 58 SSW 9 15 30.22 1024 10 16 N/A
5:56 pm 17:56 Clear 26 -3.3 15 -9.4 63 63 SW 10 17 30.22 1023 10 16 N/A
6:56 pm 18:56 Clear 25 -3.9 15 -9.4 66 66 SSW 9 15 30.23 1024 10 16 N/A
7:56 pm 19:56 Clear 24 -4.4 15 -9.4 68 68 SSW 14 22 30.22 1023 10 16 N/A
8:56 pm 20:56 Clear 24 -4.4 14 -10 65 65 SW 16 26 30.21 1023 10 16 N/A
9:56 pm 21:56 Clear 23 -5 13 -10.6 65 65 SW 15 24 30.21 1023 10 16 N/A
10:56 pm 22:56 Clear 22 -5.6 13 -10.6 68 68 SW 14 22 30.20 1023 10 16 N/A
11:56 pm 23:56 Clear 22 -5.6 13 -10.6 68 68 SW 12 19 30.19 1022 10 16 N/A

Powered by AerisWeather